This demonstration page uses our WeatherBlox Daily Observations layout. Learn more.

Left ArrowRight Arrow

31.31129, -92.44514

Hourly Observations for August 19, 2018

Temp ( °F °C ) Dew Point ( °F °C ) Humidity (%) Winds ( mph kmh ) Pressure ( in mb ) Visibility ( mi km ) Precip ( " mm )
12:53 am 00:53 Clear with Heavy Rain 79 26.1 75 23.9 88 88 S 5 7 29.92 1013 10 16 0.00 0.03
1:53 am 01:53 Clear 79 26.1 75 23.9 88 88 SSW 6 9 29.91 1013 9 14 0.00 0.00
2:53 am 02:53 Clear 79 26.1 75 23.9 88 88 SSW 6 9 29.92 1013 9 14 0.00 0.00
3:53 am 03:53 Mostly Clear 77 25 75 23.9 94 94 S 5 7 29.92 1013 8 13 0.00 0.00
4:53 am 04:53 Clear 76 24.4 74 23.3 94 94 S 6 9 29.91 1013 7 11 0.00 0.00
5:53 am 05:53 Clear 77 25 75 23.9 94 94 S 5 7 29.91 1013 8 13 0.00 0.00
6:53 am 06:53 Sunny with Mist and Fog 77 25 75 23.9 94 94 S 5 7 29.93 1014 6 10 0.00 0.00
7:53 am 07:53 Sunny 80 26.7 76 24.4 87 87 VRB 6 9 29.93 1014 8 13 0.00 0.00
8:53 am 08:53 Sunny 83 28.3 76 24.4 79 79 SSW 7 11 29.95 1014 10 16 0.00 0.00
9:44 am 09:44 Mostly Cloudy 86 30 75 23.9 70 70 SW 10 17 29.94 1014 10 16 0.00 0.00
9:53 am 09:53 Mostly Cloudy 87 30.6 75 23.9 67 67 SW 7 11 29.95 1014 10 16 0.00 0.00
10:00 am 10:00 Partly Cloudy 87 30.6 75 23.9 67 67 SW 7 11 29.94 1014 10 16 0.00 0.00
10:25 am 10:25 Mostly Cloudy 88 31.1 75 23.9 66 66 SW 6 9 29.94 1014 10 16 0.00 0.00
10:53 am 10:53 Mostly Cloudy 90 32.2 75 23.9 62 62 SW 10 17 29.96 1015 10 16 0.00 0.00
11:05 am 11:05 Mostly Cloudy 90 32.2 75 23.9 62 62 SW 9 15 29.94 1014 10 16 0.00 0.00
11:53 am 11:53 Partly Cloudy 92 33.3 74 23.3 56 56 SSW 8 13 29.96 1014 10 16 0.00 0.00
12:53 pm 12:53 Mostly Cloudy 93 33.9 72 22.2 50 50 VRB 6 9 29.93 1014 10 16 0.00 0.00
1:53 pm 13:53 Partly Cloudy 96 35.6 71 21.7 44 44 WSW 8 13 29.89 1012 10 16 0.00 0.00
2:53 pm 14:53 Mostly Sunny 97 36.1 71 21.7 43 43 undefined N/A 29.87 1012 10 16 0.00 0.00
3:53 pm 15:53 Partly Cloudy 95 35 69 20.6 43 43 WSW 9 15 29.85 1011 10 16 0.00 0.00
4:53 pm 16:53 Sunny 95 35 71 21.7 46 46 S 12 19 29.85 1011 10 16 0.00 0.00
5:53 pm 17:53 Partly Cloudy 93 33.9 72 22.2 50 50 S 13 20 29.85 1011 10 16 0.00 0.00
6:13 pm 18:13 Partly Cloudy with Nearby Thunderstorms 91 32.8 73 22.8 56 56 S 12 19 29.85 1011 10 16 0.00 0.00
6:28 pm 18:28 Partly Cloudy 90 32.2 72 22.2 56 56 S 10 17 29.85 1011 10 16 0.00 0.00
6:41 pm 18:41 Mostly Cloudy with Nearby Thunderstorms 89 31.7 73 22.8 59 59 SSW 10 17 29.85 1011 10 16 0.00 0.00
6:53 pm 18:53 Mostly Cloudy with Nearby Thunderstorms 89 31.7 72 22.2 57 57 S 10 17 29.86 1011 10 16 0.00 0.00
7:07 pm 19:07 Mostly Cloudy 89 31.7 73 22.8 59 59 S 13 20 29.85 1011 10 16 0.00 0.00
7:53 pm 19:53 Clear 86 30 74 23.3 67 67 S 12 19 29.88 1012 10 16 0.00 0.00
8:53 pm 20:53 Clear 83 28.3 75 23.9 77 77 S 7 11 29.88 1012 10 16 0.00 0.00
9:53 pm 21:53 Clear 82 27.8 75 23.9 79 79 S 8 13 29.91 1013 10 16 0.00 0.00
10:53 pm 22:53 Clear 81 27.2 75 23.9 82 82 S 7 11 29.91 1013 10 16 0.00 0.00
11:53 pm 23:53 Clear 80 26.7 75 23.9 85 85 S 8 13 29.92 1013 10 16 0.00 0.00

Powered by AerisWeather